Regional Weather Roundup
Issued by NWS Newport/Morehead, NC

Current Version | Previous Version | Graphics & Text | Print | Product List | Glossary Off
Versions: 1 2 3 4 5 6 7 8 9 10 11 12 13 14 15 16 17 18 19 20 21 22 23 24 25 26 27 28 29 30 31 32 33 34 35 36 37 38 39 40 41 42 43 44 45 46 47 48 49 50

000
ASUS42 KMHX 311113
RWRMHX
WEATHER ROUNDUP FOR EASTERN NORTH CAROLINA
NATIONAL WEATHER SERVICE NEWPORT/MOREHEAD CITY NC
700 AM EDT MON AUG 31 2015

NOTE: "FAIR" INDICATES FEW OR NO CLOUDS BELOW 12,000 FEET
WITH NO SIGNIFICANT WEATHER AND/OR OBSTRUCTIONS TO VISIBILITY

NCZ015>017-031-032-045>047-102-103-311200-
NORTH COAST

CITY           SKY/WX    TMP DP  RH WIND       PRES   REMARKS
EDENTON        CLOUDY    73  69  89 NW3       30.12S
ELIZABETH CITY CLOUDY    72  69  90 S5        30.13R
KITTY HAWK     CLOUDY    74  69  85 CALM      30.11S
MANTEO         CLOUDY    73  71  93 CALM      30.13R

$$

NCZ045>047-081-094-103-104-311200-
CENTRAL COAST

CITY           SKY/WX    TMP DP  RH WIND       PRES   REMARKS
FRISCO         CLOUDY    74  72  93 E3        30.11F
SWANQUARTER    NOT AVBL

$$

NCZ095-097-098-100-101-311200-
SOUTHERN COAST

CITY           SKY/WX    TMP DP  RH WIND       PRES   REMARKS
BEAUFORT       LGT RAIN  76  72  87 E3        30.10S
CEDAR ISLAND   NOT AVBL
JACKSONVILLE   CLOUDY    76  71  85 E5        30.08S
PINEY ISLAND   CLOUDY   N/A N/A N/A E3        30.11S
WILMINGTON     CLOUDY    77  73  87 E5        30.06F


$$

NCZ011>013-027>030-043-044-078>080-089-090>093-098-311200-
COASTAL PLAIN

CITY           SKY/WX    TMP DP  RH WIND       PRES   REMARKS
AHOSKIE        CLOUDY    69  66  89 S3        30.13R
CLINTON        CLOUDY    71  70  96 CALM      30.08S
ELIZABETHTOWN  DRIZZLE   71  71 100 CALM      30.07S
GOLDSBORO      CLOUDY    70  69  95 E6        30.08S
GREENVILLE     CLOUDY    70  70 100 CALM      30.13R
HAVELOCK       CLOUDY    74  70  87 E3        30.11S
KENANSVILLE      N/A     70  69  94 CALM      30.09F
KINSTON        CLOUDY    72  68  88 E5        30.11S
NEW BERN       CLOUDY    75  70  84 CALM      30.11S
RICHLANDS      CLOUDY    72  66  83 NE5       30.08F
ROCKY MOUNT    LGT RAIN  70  68  93 SE5       30.12R FOG
WASHINGTON     CLOUDY    70  68  91 NE3       30.12R
WHITEVILLE     LGT RAIN  74  73  94 CALM      30.06R

$$

AMZ130-135-150-152-154-156-158-170-250-252-270-ANZ085-086-088-633-658-670-311200-
MARINE OBSERVATIONS

STATION/POSITION TIME  TEMP    WIND        PRES    WAVE   SWELL
                       AIR SEA DIR/SP/G            HT/PER HT/PER
                 (UTC) (F)     (DEG/KT/KT) (MB)    (FT/S) (FT/S)
CHESAPEAKE LIGHT 1100   76     250/  5/  5 1020.3
64 E VA BEACH    1050   78 78  260/  8/ 10 1019.3    3/10   3/10
DUCK             NOT AVBL
2 E DUCK         1011      79                N/A     2/ 9
OREGON INLET     NOT AVBL
13E OREGON INLT  1100      78                N/A     3/ 9   2/11
HATTERAS CG      NOT AVBL
DIAMOND BUOY     1050   81 83   CALM  /  2 1020.1    3/ 9   3/ 9
CAPE LOOKOUT     1100   80      90/ 10/ 12 1018.9
BEAUFORT LAB     NOT AVBL
30 SE NEW RVR IN NOT AVBL
30 SE NEW RVR IN 1025      81                N/A     4/10   2/11
27 SE WRIGHTSVLE 1000   78 81  150/  8/ 10   N/A
5 SE WRIGHTSVLE  1008   81 82  150/  8/ 12 1018.2
225 S CAPE HAT   1050   83 84  150/  8/ 10 1019.6    3/ 8   3/ 8
41 SE CHARLESTON 1050   82 84  160/ 19/ 23 1015.6    6/ 9   3/ 9

$$


USA.gov is the U.S. government's official web portal to all federal, state and local government web resources and services.